{"data":{"norad_id":63443,"epoch":"2026-05-24T17:28:45.187392Z","epoch_age_seconds":92317,"freshness":"FRESH","line1":"1 63443U 25069L   26144.72830078  .00029146  00000+0  67639-3 0  9999","line2":"2 63443  53.1596 146.6525 0001287  95.9552 264.1601 15.42172254 65074","mean_motion":15.42172254,"eccentricity":0.0001287,"inclination_deg":53.1596,"raan_deg":146.6525,"arg_perigee_deg":95.9552,"mean_anomaly_deg":264.1601,"bstar":0.00067639,"rev_number":6507,"period_min":93.374783281505,"perigee_km":438.82208183956,"apogee_km":440.57699296429,"semimajor_km":6817.8365374019,"source":"CELESTRAK","updated_at":"2026-05-25T13:38:20.000003Z"}}